Flag for Australia Weather past 2 weeks in Tamworth, New South Wales, Australia

Now
55 °F

Clear.


Feels Like: 55 °F
Forecast: 45 / 68 °F
Wind: 5 mph from Southeast

Location: Tamworth Airport

Current Time: May 27, 2015 at 8:28:18 PM

Latest Report: May 27, 2015 at 8:00 PM


Visibility: N/A

Pressure: 30.24 "Hg

Humidity: 77%

Dew point: 48 °F

Location of TamworthLocation

Historic Weather in Tamworth — Graph

°F

Tamworth temperature yesterday

Maximum temperature yesterday: 64 °F (at 12:30 PM)
Minimum temperature yesterday: 41 °F (at 4:30 AM)
Average temperature yesterday: 51 °F

Past Weeks' High & Low Weather Summary

 TemperatureHumidityPressure
High79 °F (May 20, 3:00 PM)94% (May 17, 4:00 AM)30.51 "Hg (May 17, 4:00 AM)
Low30 °F (May 14, 5:00 AM)31% (May 14, 12:30 PM)29.98 "Hg (May 13, 4:00 AM)
Average54 °F69%30.28 "Hg
* Reported May 12 7:00 PM — May 27 7:30 PM, Tamworth, Weather by CustomWeather, © 2015

Note: Actual official high and low records may vary slightly from our data, if they occured in-between our weather recording intervals... More about our weather records

Advertising

Tamworth weather history for previous 24 hours

 ConditionsComfort  
Time TempWeatherWind HumidityBarometerVisibility
7:30 PM
Wed, May 27
57 °FClear.3 mph67%30.24 "HgN/A
7:00 PM55 °FClear.No wind72%30.24 "HgN/A
6:30 PM57 °FClear.No wind67%30.21 "HgN/A
6:00 PM59 °FClear.No wind68%30.21 "HgN/A
5:30 PM57 °FClear.6 mph67%30.21 "HgN/A
5:00 PM61 °FClear.3 mph59%30.21 "HgN/A
4:30 PM63 °FClear.5 mph56%30.21 "HgN/A
4:00 PM64 °FSunny.7 mph49%30.21 "HgN/A
3:30 PM64 °FScattered clouds.5 mph46%30.21 "HgN/A
3:00 PM66 °FScattered clouds.6 mph43%30.21 "HgN/A
2:30 PM68 °FSunny.6 mph40%30.21 "HgN/A
1:30 PM66 °FSunny.7 mph40%30.21 "HgN/A
1:00 PM66 °FSunny.6 mph35%30.24 "HgN/A
12:30 PM66 °FSunny.7 mph37%30.24 "HgN/A
12:00 PM64 °FSunny.6 mph43%30.27 "HgN/A
11:30 AM63 °FSunny.5 mph49%30.30 "HgN/A
11:00 AM59 °FSunny.6 mph55%30.30 "HgN/A
10:30 AM59 °FSunny.3 mph55%30.30 "HgN/A
10:00 AM57 °FSunny.2 mph59%30.30 "HgN/A
9:30 AM52 °FSunny.No wind67%30.30 "HgN/A
9:00 AM52 °FSunny.5 mph72%30.30 "HgN/A
8:30 AM48 °FSunny.5 mph82%30.30 "HgN/A
8:00 AM46 °FSunny.9 mph87%30.30 "HgN/A
7:30 AM45 °FSunny.8 mph93%30.30 "HgN/A
7:00 AM41 °FSunny.8 mph93%30.27 "HgN/A
6:30 AM41 °FSunny.9 mph93%30.27 "HgN/A
6:00 AM39 °FSunny.7 mph93%30.27 "Hg4 mi
5:30 AM39 °FChilly.2 mph93%30.27 "Hg1 mi
5:00 AM37 °FChilly.No wind93%30.27 "Hg0 mi
4:30 AM39 °FClear.No wind93%30.27 "Hg3 mi
4:00 AM43 °FClear.7 mph93%30.27 "HgN/A
3:30 AM41 °FClear.3 mph93%30.27 "Hg2 mi
3:00 AM41 °FClear.5 mph93%30.27 "Hg1 mi
2:30 AM41 °FQuite cool.No wind93%30.27 "Hg0 mi
2:00 AM43 °FClear.3 mph93%30.27 "HgN/A
1:30 AM45 °FClear.2 mph93%30.27 "HgN/A
1:01 AM43 °FClear.1 mph93%30.30 "Hg4 mi
12:30 AM46 °FClear.6 mph87%30.30 "HgN/A
12:00 AM46 °FClear.7 mph87%30.30 "HgN/A
11:30 PM
Tue, May 26
48 °FClear.8 mph87%30.30 "HgN/A
11:00 PM48 °FClear.5 mph87%30.30 "HgN/A
10:30 PM48 °FClear.1 mph94%30.30 "HgN/A
10:00 PM48 °FClear.No wind87%30.33 "HgN/A
9:30 PM48 °FClear.No wind87%30.30 "HgN/A
9:00 PM50 °FClear.2 mph82%30.30 "HgN/A
8:30 PM50 °FClear.3 mph88%30.33 "HgN/A
8:00 PM50 °FClear.5 mph88%30.33 "HgN/A
Weather by CustomWeather, © 2015

See weather overviewHow to use our weather pages